This demonstration page uses our WeatherBlox Daily Observations layout. Learn more.

Left ArrowRight Arrow

39.95238, -75.16362

Hourly Observations for May 12, 2016

Temp ( °F °C ) Dew Point ( °F °C ) Humidity (%) Winds ( mph kmh ) Pressure ( in mb ) Visibility ( mi km ) Precip ( " mm )
12:54 am 00:54 Mostly Cloudy with Mist and Fog 57 13.9 53 11.7 87 87 WSW 5 7 30.15 1021 5 8 0.00 0.00
1:09 am 01:09 Mostly Cloudy with Mist and Fog 57 13.9 53 11.7 87 87 SW 3 6 30.15 1021 4 6 0.00 0.00
1:54 am 01:54 Mostly Cloudy with Mist and Fog 57 13.9 53 11.7 87 87 WSW 3 6 30.13 1020 4 6 0.00 0.00
2:54 am 02:54 Mostly Cloudy with Mist and Fog 57 13.9 54 12.2 90 90 SW 3 6 30.12 1020 3 5 0.00 0.00
3:54 am 03:54 Mostly Cloudy with Mist and Fog 57 13.9 53 11.7 87 87 SW 5 7 30.12 1020 4 6 0.00 0.00
4:27 am 04:27 Mostly Cloudy with Mist and Fog 57 13.9 54 12.2 90 90 W 5 7 30.12 1020 5 8 0.00 0.00
4:54 am 04:54 Mostly Cloudy with Mist and Fog 57 13.9 54 12.2 90 90 SW 5 7 30.14 1021 5 8 0.00 0.00
5:54 am 05:54 Mostly Cloudy with Mist and Fog 57 13.9 53 11.7 87 87 Calm 30.13 1020 5 8 0.00 0.00
6:02 am 06:02 Mostly Cloudy with Mist and Fog 57 13.9 54 12.2 90 90 SSW 3 6 30.15 1021 4 6 0.00 0.00
6:54 am 06:54 Mostly Cloudy with Mist and Fog 57 13.9 54 12.2 90 90 Calm 30.14 1021 4 6 0.00 0.00
7:54 am 07:54 Hazy 62 16.7 55 12.8 78 78 NE 3 6 30.14 1021 4 6 0.00 0.00
8:54 am 08:54 Hazy 65 18.3 55 12.8 70 70 NE 6 9 30.14 1021 4 6 0.00 0.00
9:54 am 09:54 Hazy 70 21.1 55 12.8 59 59 E 7 11 30.12 1020 4 6 0.00 0.00
10:11 am 10:11 Mostly Cloudy with Haze 69 20.6 55 12.8 61 61 E 8 13 30.12 1020 5 8 0.00 0.00
10:54 am 10:54 Mostly Cloudy 72 22.2 55 12.8 55 55 VRB 7 11 30.12 1020 7 11 0.00 0.00
11:54 am 11:54 Mostly Cloudy 75 23.9 57 13.9 54 54 Calm 30.11 1020 8 13 0.00 0.00
12:38 pm 12:38 Cloudy 73 23 57 14 57 57 VRB 3 6 30.12 1020 10 16 0.00 0.00
12:54 pm 12:54 Cloudy 73 22.8 57 13.9 57 57 S 3 6 30.10 1019 10 16 0.00 0.00
1:35 pm 13:35 Cloudy 72 22.2 57 13.9 59 59 WSW 10 17 30.09 1019 7 11 0.00 0.03
1:54 pm 13:54 Cloudy 72 22.2 58 14.4 61 61 SW 7 11 30.09 1019 7 11 0.00 0.03
2:40 pm 14:40 Partly Cloudy 73 22.8 59 15 62 62 SSW 6 9 30.06 1018 10 16 0.00 0.00
2:54 pm 14:54 Partly Cloudy 74 23.3 59 15 60 60 S 7 11 30.07 1018 10 16 0.00 0.00
3:54 pm 15:54 Partly Cloudy 75 23.9 58 14.4 55 55 SSW 6 9 30.05 1018 10 16 0.00 0.00
4:54 pm 16:54 Partly Cloudy 74 23.3 59 15 60 60 W 16 26 30.03 1017 10 16 0.00 0.00
5:54 pm 17:54 Partly Cloudy 74 23.3 59 15 60 60 W 12 19 30.01 1016 10 16 0.00 0.00
6:54 pm 18:54 Partly Cloudy 73 22.8 59 15 62 62 WSW 12 19 30.01 1016 10 16 0.00 0.00
7:54 pm 19:54 Mostly Cloudy 71 21.7 58 14.4 63 63 SW 12 19 30.01 1016 10 16 0.00 0.00
8:54 pm 20:54 Mostly Cloudy 69 20.6 58 14.4 68 68 S 7 11 30.01 1016 10 16 0.00 0.00
9:54 pm 21:54 Cloudy 67 19.4 57 13.9 71 71 S 8 13 30.02 1017 10 16 0.00 0.00
10:54 pm 22:54 Mostly Cloudy 64 17.8 57 13.9 78 78 S 7 11 30.02 1017 10 16 0.00 0.00
11:35 pm 23:35 Cloudy 64 17.8 57 13.9 78 78 SW 9 15 30.03 1017 10 16 0.00 0.00
11:54 pm 23:54 Cloudy 63 17.2 57 13.9 81 81 S 8 13 30.02 1017 10 16 0.00 0.00

Powered by AerisWeather